Stations météo

réclame
Mon MeteoGroup
Deauville, France (7031): Température de l'air & dewpoint: 18.05.2019 03:00:00 - 24.05.2019 03:00:00 (CEST)Deauville, France (7031): Température de l'air 5cm: 18.05.2019 03:00:00 - 24.05.2019 03:00:00 (CEST)Deauville, France (7031): Vitesse du vent & gusts: 18.05.2019 03:00:00 - 24.05.2019 03:00:00 (CEST)Deauville, France (7031): Direction du vent: 18.05.2019 03:00:00 - 24.05.2019 03:00:00 (CEST)Deauville, France (7031): reduced air pressure: 18.05.2019 03:00:00 - 24.05.2019 03:00:00 (CEST)Deauville, France (7031): visibility: 18.05.2019 03:00:00 - 24.05.2019 03:00:00 (CEST)Deauville, France (7031): Quantités de précipitations: 18.05.2019 03:00:00 - 24.05.2019 03:00:00 (CEST)
Date & Time tt [°C] td [°C] tt 5cm [°C] ff [km/h] ff [knt] fx [km/h] fx [knt] dd ppp [hPa] vv [km] rr [mm]
24.05.2019 03:00:00 7,8 7,0 2,3 5 3 10 5 WNW 1018,0 23 0,0
24.05.2019 02:00:00 6,9 6,3 2,2 4 2 8 4 WNW 1018,3 19 0,0
24.05.2019 01:00:00 6,9 6,0 2,8 4 2 8 4 W 1018,5 60 0,0
24.05.2019 00:00:00 7,2 6,0 3,1 4 2 9 5 NW 1018,4 60 0,0
23.05.2019 23:00:00 8,5 5,9 4,4 0 0 12 7 N 1018,4 60 0,0
23.05.2019 22:00:00 11,2 8,6 7,8 3 1 11 6 N 1018,1 18 0,0
23.05.2019 21:00:00 13,5 9,2 12,9 10 5 16 9 SW 1018,2 53 0,0
23.05.2019 20:00:00 - - - - - - - - - - -
23.05.2019 19:00:00 13,6 12,0 12,9 5 3 21 12 NNW 1017,5 10 0,0
23.05.2019 18:00:00 14,3 13,0 13,8 13 7 42 23 NNW 1017,4 9 3,6
23.05.2019 17:00:00 17,4 11,0 14,7 10 5 28 15 NNW 1017,2 21 0,0
23.05.2019 16:00:00 16,8 10,9 14,5 9 5 32 17 NW 1017,4 14 0,2
23.05.2019 15:00:00 22,1 9,3 26,2 14 8 32 17 S 1017,0 32 0,0
23.05.2019 14:00:00 20,8 9,1 25,0 19 10 37 20 S 1017,6 34 0,0
23.05.2019 13:00:00 21,6 9,5 28,2 19 11 36 19 S 1017,8 32 0,0
23.05.2019 12:00:00 20,6 10,1 21,6 16 9 32 18 S 1018,2 37 0,0
23.05.2019 11:00:00 18,6 10,7 20,3 10 5 27 14 SSE 1018,3 50 0,0
23.05.2019 10:00:00 17,3 9,0 16,8 17 9 29 16 S 1018,5 31 0,0
23.05.2019 09:00:00 15,8 8,3 13,5 17 9 27 15 SSE 1018,6 50 0,0
23.05.2019 08:00:00 14,3 7,8 11,9 14 8 23 12 S 1018,7 31 0,0
23.05.2019 07:00:00 13,5 7,5 9,3 14 8 26 14 S 1018,6 49 0,0
23.05.2019 06:00:00 12,7 7,4 6,6 14 7 22 12 S 1018,7 50 0,0
23.05.2019 05:00:00 11,6 7,1 3,9 12 6 20 11 S 1018,8 57 0,0
23.05.2019 04:00:00 10,4 5,4 3,3 7 4 10 6 SE 1019,3 19 0,0
23.05.2019 03:00:00 9,6 4,2 2,9 5 3 12 6 SE 1019,7 60 0,0
23.05.2019 02:00:00 9,7 4,9 2,8 5 3 8 4 SE 1020,0 59 0,0
23.05.2019 01:00:00 9,9 5,1 2,2 3 2 5 3 ESE 1020,3 54 0,0
23.05.2019 00:00:00 9,4 5,0 2,3 0 0 4 2 N 1020,5 31 0,0
22.05.2019 23:00:00 10,1 5,1 3,5 2 1 3 2 SSW 1020,8 42 0,0
22.05.2019 22:00:00 11,9 5,1 5,9 0 0 4 2 N 1020,4 43 0,0
22.05.2019 21:00:00 17,0 5,0 17,6 3 1 11 6 NNE 1020,2 46 0,0
22.05.2019 20:00:00 17,9 5,5 24,4 8 4 13 7 N 1020,5 40 0,0
22.05.2019 19:00:00 19,2 5,6 28,9 4 2 12 6 N 1020,3 33 0,0
22.05.2019 18:00:00 18,6 5,1 23,5 5 3 13 7 NNW 1020,7 42 0,0
22.05.2019 17:00:00 18,2 4,4 25,5 6 4 19 11 N 1021,1 35 0,0
22.05.2019 16:00:00 18,0 6,2 24,0 9 5 22 12 NNW 1021,3 29 0,0
22.05.2019 15:00:00 18,0 3,8 24,6 13 7 23 13 NW 1021,5 20 0,0
22.05.2019 14:00:00 18,0 3,8 25,2 11 6 21 12 WNW 1021,5 15 0,0
22.05.2019 13:00:00 17,9 2,6 25,6 13 7 23 13 WNW 1021,6 27 0,0
22.05.2019 12:00:00 17,3 5,6 18,5 8 5 21 11 WSW 1021,7 54 0,0
22.05.2019 11:00:00 15,1 7,1 16,1 9 5 17 9 WSW 1021,6 36 0,0
22.05.2019 10:00:00 13,7 8,3 13,7 6 3 11 6 SSW 1021,6 28 0,0
22.05.2019 09:00:00 11,9 8,6 11,6 7 4 11 6 SSW 1021,5 32 0,0
22.05.2019 08:00:00 9,9 9,6 4,7 4 2 10 5 SSW 1021,4 18 0,0
22.05.2019 07:00:00 7,5 7,4 0,2 3 2 7 4 SSW 1021,4 14 0,2
22.05.2019 06:00:00 6,2 5,9 0,3 3 2 8 4 SSW 1021,4 0,1 0,0
22.05.2019 05:00:00 6,7 6,4 0,7 6 3 8 5 SSW 1021,4 1,9 0,0
22.05.2019 04:00:00 8,5 8,2 2,4 6 4 8 4 W 1021,6 0,3 0,0
22.05.2019 03:00:00 8,6 8,3 1,5 8 4 11 6 W 1021,5 1,7 0,0
22.05.2019 02:00:00 8,0 7,7 -0,3 7 4 9 5 W 1021,6 1,9 0,0
22.05.2019 01:00:00 7,8 7,2 -0,1 5 3 7 4 W 1021,4 0,8 0,0
22.05.2019 00:00:00 8,3 7,5 2,1 3 2 10 6 SSW 1021,4 2,4 0,0
21.05.2019 23:00:00 9,7 8,8 5,1 8 5 10 6 W 1021,2 6 0,0
21.05.2019 22:00:00 10,3 8,6 7,7 9 5 14 8 W 1021,0 10 0,0
21.05.2019 21:00:00 13,7 8,7 14,1 7 4 16 9 WNW 1020,4 18 0,0
21.05.2019 20:00:00 15,3 9,2 19,9 9 5 19 11 NW 1020,1 20 0,0
21.05.2019 19:00:00 17,0 9,7 24,1 10 5 21 11 NNW 1019,5 34 0,0
21.05.2019 18:00:00 17,4 9,0 25,6 10 6 29 15 NNW 1019,5 20 0,0
21.05.2019 17:00:00 17,0 9,4 25,1 15 8 29 16 N 1019,5 16 0,0
21.05.2019 16:00:00 16,9 9,8 26,7 14 7 25 14 WNW 1019,6 14 0,0
21.05.2019 15:00:00 16,5 11,0 25,4 16 9 26 14 W 1019,5 12 0,0
21.05.2019 14:00:00 16,6 11,9 25,5 15 8 23 12 W 1019,2 11 0,0
21.05.2019 13:00:00 15,7 12,1 24,2 16 8 24 13 W 1019,3 10 0,0
21.05.2019 12:00:00 15,1 11,7 20,7 11 6 20 11 W 1019,0 10 0,0
21.05.2019 11:00:00 14,2 11,5 14,8 12 6 23 12 W 1019,1 4,1 0,0
21.05.2019 10:00:00 12,6 10,8 13,4 12 7 21 11 W 1018,7 7 0,0
21.05.2019 09:00:00 11,9 10,8 11,5 13 7 19 11 W 1018,3 4,6 0,0
21.05.2019 08:00:00 10,9 10,4 10,7 10 6 16 9 W 1017,9 3,5 0,0
21.05.2019 07:00:00 10,6 10,3 8,7 6 3 14 7 W 1017,4 2,1 0,0
21.05.2019 06:00:00 10,0 9,7 8,7 10 5 14 8 W 1017,2 2,2 0,0
21.05.2019 05:00:00 10,1 9,8 6,3 10 5 12 7 W 1017,0 2,1 0,0
21.05.2019 04:00:00 9,7 9,2 6,5 7 4 8 5 W 1016,9 1,2 0,0
21.05.2019 03:00:00 10,5 9,9 9,3 5 3 10 5 W 1016,8 2,1 0,0
21.05.2019 02:00:00 10,9 10,3 9,8 7 4 12 6 W 1016,9 1,8 0,0
21.05.2019 01:00:00 11,4 10,8 10,4 6 3 13 7 WNW 1016,9 2,3 0,0
21.05.2019 00:00:00 11,4 10,8 9,1 6 4 16 9 NW 1016,9 2,4 0,0
20.05.2019 23:00:00 11,0 9,9 6,2 8 4 14 8 WNW 1016,4 6 0,0
20.05.2019 22:00:00 11,0 9,4 8,5 6 4 12 7 NW 1015,8 7 0,0
20.05.2019 21:00:00 12,6 8,3 12,1 8 5 22 12 NW 1015,1 26 0,0
20.05.2019 20:00:00 14,5 8,0 18,5 11 6 23 13 NW 1014,7 32 0,0
20.05.2019 19:00:00 16,2 8,4 22,2 13 7 23 13 NNW 1014,3 20 0,0
20.05.2019 18:00:00 17,0 8,7 24,7 13 7 28 15 NNW 1013,8 17 0,0
20.05.2019 17:00:00 16,4 8,9 24,0 15 8 29 15 NW 1013,9 11 0,0
20.05.2019 16:00:00 16,3 9,9 22,4 14 7 24 13 WNW 1013,9 10 0,0
20.05.2019 15:00:00 15,4 11,6 23,1 16 9 26 14 W 1013,7 9 0,0
20.05.2019 14:00:00 14,8 11,8 23,9 16 9 24 13 W 1013,5 9 0,0
20.05.2019 13:00:00 14,8 12,3 20,6 15 8 25 14 W 1013,3 9 0,0
20.05.2019 12:00:00 13,8 11,3 18,9 13 7 22 12 W 1013,1 8 0,0
20.05.2019 11:00:00 13,6 11,6 15,0 13 7 23 12 WNW 1013,0 8 0,0
20.05.2019 10:00:00 12,4 11,3 13,3 13 7 22 12 W 1012,8 3,8 0,0
20.05.2019 09:00:00 11,8 11,0 12,2 13 7 22 12 W 1012,4 2,6 0,0
20.05.2019 08:00:00 11,5 11,2 11,1 10 6 17 9 W 1011,8 3,0 0,0
20.05.2019 07:00:00 11,1 10,8 9,1 9 5 13 7 W 1011,4 1,5 0,0
20.05.2019 06:00:00 10,3 9,7 9,0 4 2 10 5 WNW 1011,3 1,6 0,0
20.05.2019 05:00:00 10,5 9,7 9,1 6 4 13 7 W 1011,3 1,8 0,0
20.05.2019 04:00:00 9,7 8,8 6,4 5 3 6 4 W 1011,3 7 0,0
20.05.2019 03:00:00 9,4 7,7 6,4 2 1 11 6 NNW 1011,6 4,3 0,0
20.05.2019 02:00:00 10,6 8,2 9,0 5 3 14 8 NNW 1011,7 6 0,0
20.05.2019 01:00:00 10,8 8,7 9,5 8 4 19 10 NNW 1011,8 6 0,0
20.05.2019 00:00:00 10,7 8,8 9,7 11 6 24 13 N 1011,8 7 0,0
19.05.2019 23:00:00 10,9 9,5 10,4 13 7 25 14 NNW 1011,6 5 0,0
19.05.2019 22:00:00 11,1 9,8 10,8 11 6 23 12 NNW 1011,2 4,3 0,0
19.05.2019 21:00:00 11,4 10,0 11,5 9 5 24 13 NW 1010,7 4,8 0,0
19.05.2019 20:00:00 11,6 9,7 12,3 10 5 23 12 NW 1010,3 6 0,0
19.05.2019 19:00:00 11,9 10,1 13,0 10 5 21 12 NW 1009,9 5 0,0
19.05.2019 18:00:00 11,9 10,5 12,8 11 6 23 12 NNW 1010,0 3,7 0,0
19.05.2019 17:00:00 12,0 9,6 13,5 8 5 22 12 NW 1010,0 6 0,0
19.05.2019 16:00:00 12,0 9,9 13,6 11 6 26 14 NW 1009,7 4,1 0,0
19.05.2019 15:00:00 12,9 10,4 16,1 11 6 24 13 NNW 1009,7 4,1 0,0
19.05.2019 14:00:00 13,2 10,7 17,2 14 8 26 14 NW 1009,6 4,2 0,0
19.05.2019 13:00:00 13,1 11,2 16,4 11 6 26 14 NW 1009,3 3,3 0,0
19.05.2019 12:00:00 12,7 10,9 14,5 12 7 23 12 NW 1009,2 3,1 0,0
19.05.2019 11:00:00 12,2 11,3 13,4 13 7 26 14 NW 1009,1 2,2 0,0
19.05.2019 10:00:00 11,7 11,2 11,8 7 4 18 10 NNW 1008,8 2,0 0,2
19.05.2019 09:00:00 11,1 10,8 11,1 8 4 14 7 NNW 1008,7 1,4 0,6
19.05.2019 08:00:00 10,7 10,4 10,6 4 2 14 8 NNW 1008,5 1,8 0,0
19.05.2019 07:00:00 10,6 10,3 10,6 7 4 17 9 NW 1008,3 1,4 0,2
19.05.2019 06:00:00 10,8 10,5 10,6 6 4 16 9 NNW 1008,1 0,8 0,0
19.05.2019 05:00:00 10,7 10,4 10,4 7 4 18 10 NNW 1008,0 0,7 0,6
19.05.2019 04:00:00 10,6 10,3 10,4 11 6 22 12 NNW 1008,1 1,0 0,8
19.05.2019 03:00:00 10,6 10,3 10,3 9 5 16 9 NW 1008,1 1,3 0,0
19.05.2019 02:00:00 10,6 10,1 10,3 8 4 14 8 NW 1008,4 1,3 0,0
19.05.2019 01:00:00 10,7 10,2 10,5 8 5 19 10 NW 1008,6 1,5 0,4
19.05.2019 00:00:00 10,8 10,3 10,4 11 6 21 11 NW 1008,5 1,6 0,4
18.05.2019 23:00:00 11,0 10,4 10,7 6 4 12 7 WNW 1008,5 1,4 0,4
18.05.2019 22:00:00 11,1 10,3 10,8 7 4 13 7 NNW 1008,2 1,9 0,0
18.05.2019 21:00:00 11,3 10,4 11,3 7 4 18 10 NW 1007,8 2,2 0,0
18.05.2019 20:00:00 11,5 10,1 12,0 9 5 21 12 NW 1007,4 2,9 0,0
18.05.2019 19:00:00 11,8 10,0 13,3 10 5 25 14 WNW 1007,1 2,9 0,0
18.05.2019 18:00:00 12,4 9,8 14,5 12 6 23 13 NW 1006,9 3,8 0,0
18.05.2019 17:00:00 12,6 10,1 15,5 13 7 23 13 WNW 1006,6 3,8 0,0
18.05.2019 16:00:00 13,5 10,5 17,3 10 6 22 12 WNW 1006,6 3,8 0,0
18.05.2019 15:00:00 13,3 9,9 16,6 13 7 20 11 W 1006,5 4,3 0,0
18.05.2019 14:00:00 12,4 9,8 13,0 8 4 17 9 NW 1006,5 3,6 0,0
18.05.2019 13:00:00 11,4 9,8 11,5 10 5 15 8 NW 1006,4 2,7 0,0
18.05.2019 12:00:00 11,4 9,6 11,8 8 4 15 8 WNW 1006,3 2,9 0,0
18.05.2019 11:00:00 11,4 9,5 12,9 7 4 16 9 NW 1006,1 3,7 0,0
18.05.2019 10:00:00 11,5 9,7 13,0 6 4 11 6 NW 1005,9 4,0 0,0
18.05.2019 09:00:00 10,7 10,4 11,9 6 3 11 6 NNW 1005,6 3,1 0,0
18.05.2019 08:00:00 10,1 9,9 6,8 4 2 7 4 NNW 1005,5 1,8 0,0
18.05.2019 07:00:00 8,0 7,7 4,6 4 2 7 4 N 1005,4 0,4 0,0
18.05.2019 06:00:00 8,2 7,8 5,6 2 1 9 5 ESE 1005,6 0,2 0,0
18.05.2019 05:00:00 8,7 8,4 5,7 4 2 13 7 N 1005,6 0,8 0,0
18.05.2019 04:00:00 8,8 8,3 5,4 6 3 9 5 NW 1005,9 1,4 0,0
18.05.2019 03:00:00 8,6 8,0 6,0 4 2 8 5 NW 1005,9 1,1 0,0

tt = Température de l'air
td = dewpoint
tt 5cm = Température de l'air 5cm
ff = Vitesse du vent
fx = gusts
dd = Direction du vent
ppp = reduced air pressure
vv = visibility
rr = Quantités de précipitations

stations d'obs. à proximité